Regional Weather Roundup
Issued by NWS Cleveland, OH

Home | Current Version | Previous Version | Text Only | Print | Product List | Glossary Off
Versions: 1 2 3 4 5 6 7 8 9 10 11 12 13 14 15 16 17 18 19 20 21 22 23 24 25 26 27 28 29 30 31 32 33 34 35 36 37 38 39 40 41 42 43 44 45 46 47 48 49 50

000
ASUS41 KCLE 271600
RWRCLE
OHIO REGIONAL WEATHER ROUNDUP
NATIONAL WEATHER SERVICE WILMINGTON, OH
1200 PM EDT MON APR 27 2015

NOTE: "FAIR" INDICATES FEW OR NO CLOUDS BELOW 12,000 FEET WITH NO
SIGNIFICANT WEATHER AND/OR OBSTRUCTIONS TO VISIBILITY.

OHZ001>008-015>018-024>027-034-035-043-044-271700-
   NORTHWEST OHIO

CITY           SKY/WX    TMP DP  RH WIND       PRES   REMARKS
DEFIANCE       CLOUDY   N/A N/A N/A MISG      30.02S
FINDLAY        CLOUDY    49  35  58 NW8       30.00S
TOLEDO EXPRESS CLOUDY    46  35  65 N12       30.02R
TOLEDO EXEC    CLOUDY    47  35  63 N6        30.03R
LIMA           PTSUNNY   50  37  61 NW9       29.99F
$$

OHZ009>014-019>023-028>033-038-089-271700-
   NORTHEAST OHIO

CITY           SKY/WX    TMP DP  RH WIND       PRES   REMARKS
CLE-HOPKINS    CLOUDY    40  35  83 NW12      30.01S
CLE-LAKEFRONT  CLOUDY    41  35  79 NW13      29.98S
CUY CO. ARPT   CLOUDY    41  37  87 N12       29.98R
LORAIN-ELYRIA  CLOUDY    40  35  83 N13       30.00R
ASHTABULA      LGT RAIN  39  36  89 NW8       29.94R
AKRON-CANTON   LGT RAIN  41  36  82 N15       29.95R
WOOSTER        NOT AVBL
MANSFIELD      CLOUDY    43  37  79 N9        29.98R
YOUNGSTOWN     LGT RAIN  39  35  86 NW13      29.92R
$$

OHZ042-051>053-060>062-070>072-077>081-271700-
  SOUTHWEST OHIO

CITY           SKY/WX    TMP DP  RH WIND       PRES   REMARKS
CINC-COVINGTON MOSUNNY   58  37  45 NW12      29.98R
CINC-LUNKEN    SUNNY     59  37  44 N12       29.98S
HAMILTON       SUNNY     58  38  47 NW9G18    29.98S
DAYTON         NOT AVBL
WRIGHT-PAT AFB NOT AVBL
DAYTON GENERAL SUNNY     55  37  50 N9        29.96S
WILMINGTON     SUNNY     54  34  46 N5G16     29.96S
$$

OHZ036-037-039>041-045>050-054>059-063>069-073>076-082>088-271700-
  CENTRAL AND SOUTHEAST OHIO

CITY           SKY/WX    TMP DP  RH WIND       PRES   REMARKS
COLUMBUS       MOSUNNY   51  35  54 N15G23    29.97F
OSU AIRPORT    MOSUNNY   52  34  50 N14       29.96F
BOLTON FIELD   PTSUNNY   52  36  54 N7        29.97F
RICKENBACK AFB NOT AVBL
NEWARK         CLOUDY    51  35  54 NW8G20    29.96S
MARION         CLOUDY    48  33  56 N13       29.99R
LANCASTER      CLOUDY    54  35  48 NW9G17    29.96F
ZANESVILLE     LGT RAIN  47  34  60 N12G21    29.96S
NEW PHILLY     CLOUDY    47  37  68 NW13      29.96R
$$


USA.gov is the U.S. government's official web portal to all federal, state and local government web resources and services.